Meath Environmental Platform

Observations for Trim Patrick St

Time AQI Temp °C Hum % Pres Pa CO μg/m³ H₂S μg/m³ NO μg/m³ NO₂ μg/m³ O₃ μg/m³ SO₂ μg/m³ PM1 μg/m³ PM2.5 μg/m³ PM10 μg/m³
Saturday 8 August 2026
11:09 1 24.9 46 69,098 0 0 1.33 10.37 66.17 6.53 2 6.63 7.3
11:08 1 24.9 46 69,084 0 0 1.38 9.85 63.97 6.43 2.86 7.42 8.16
11:07 1 24.9 46 69,096 0 0 1.46 10.57 65.68 6.21 2.86 8.18 9
11:06 1 24.9 47 69,106 0 0 1.35 10.86 73.91 6.71 2.86 7.4 8.14
11:05 1 24.9 46 69,094 0 0 1.35 10.09 64.14 6.07 2.86 7.42 8.16
11:04 1 25 47 69,080 0 0 1.5 10.68 65.82 6.47 2 7.37 8.1
11:03 1 25 47 69,088 0 0 1.23 10.61 56.32 6.03 2.86 7.39 8.12
11:02 1 25 47 69,096 0 0 1.34 10.99 67.33 6.69 2.86 8.13 8.94
11:01 1 25 47 69,106 0 0 1.33 11.08 61.9 6.2 2 7.39 8.12
11:00 1 25 47 69,086 0 0 1.33 11.16 67.75 6.55 2.86 7.38 8.12
10:59 1 25 47 69,090 0 0 1.33 11.16 69.2 6.26 2.86 8.16 8.97
10:58 1 24.9 47 69,100 0 0 1.64 10.33 51.72 6.19 2 6.61 7.27
10:57 1 24.9 47 69,114 0 0 1.72 10.41 62.68 6.66 3.71 8.12 8.93
10:56 1 24.9 47 69,098 0 0 1.76 11.2 70.78 6.75 2 6.58 7.24
10:55 1 24.9 47 69,106 0 0 1.7 11.96 70.31 6.49 2 6.6 7.26
10:54 1 24.9 47 69,086 0 0 1.6 11.34 61.91 6.47 2.86 8.14 8.95
10:53 1 24.9 48 69,088 0 0 1.74 10.69 60.81 6.08 2 7.32 8.05
10:52 1 24.9 48 69,094 0 0 1.39 11.48 67.44 6.51 2 7.34 8.07
10:51 1 24.8 47 69,098 0 0 1.49 11.45 67.55 6.55 2.86 8.12 8.93
10:50 1 24.8 48 69,104 0 0 1.72 11.66 66.08 6.55 2.86 7.3 8.03